Time,TemperatureF,DewpointF,PressureIn,WindDirection,WindDirectionDegrees,WindSpeedMPH,WindSpeedGustMPH,Humidity,HourlyPrecipIn,Conditions,Clouds,dailyrainin,SoftwareType,DateUTC
2014-07-23 00:00:00,38.5,36.0,30.28,North,0,0.0,0.0,91,0.00,,,0.00,WUHU21623XXSP,2014-07-22 14:00:00,
2014-07-23 00:05:00,38.7,36.2,30.27,North,0,0.0,0.0,91,0.00,,,0.00,WUHU21623XXSP,2014-07-22 14:05:00,
2014-07-23 00:10:00,38.5,36.0,30.27,North,0,0.0,0.0,91,0.00,,,0.00,WUHU21623XXSP,2014-07-22 14:10:00,
2014-07-23 00:15:00,38.5,36.0,30.28,North,0,0.0,0.0,91,0.00,,,0.00,WUHU21623XXSP,2014-07-22 14:15:00,
2014-07-23 00:20:00,38.6,36.2,30.27,North,0,0.0,0.0,91,0.00,,,0.00,WUHU21623XXSP,2014-07-22 14:20:00,
2014-07-23 00:25:00,38.6,36.2,30.28,North,0,0.0,0.0,91,0.00,,,0.00,WUHU21623XXSP,2014-07-22 14:25:00,
2014-07-23 00:30:00,38.4,36.0,30.27,North,0,0.0,0.0,91,0.00,,,0.00,WUHU21623XXSP,2014-07-22 14:30:00,
2014-07-23 00:35:00,38.4,36.0,30.27,North,0,0.0,0.0,91,0.00,,,0.00,WUHU21623XXSP,2014-07-22 14:35:00,
2014-07-23 00:40:00,38.4,35.9,30.28,North,0,0.0,0.0,91,0.00,,,0.00,WUHU21623XXSP,2014-07-22 14:40:00,
2014-07-23 00:45:00,38.4,35.9,30.27,North,0,0.0,0.0,91,0.00,,,0.00,WUHU21623XXSP,2014-07-22 14:45:00,
2014-07-23 00:50:00,38.4,35.9,30.27,North,0,0.0,0.0,91,0.00,,,0.00,WUHU21623XXSP,2014-07-22 14:50:00,
2014-07-23 00:55:00,38.6,36.1,30.27,North,0,0.0,0.0,91,0.00,,,0.00,WUHU21623XXSP,2014-07-22 14:55:00,
2014-07-23 01:00:00,38.6,36.2,30.27,North,0,0.0,0.0,91,0.00,,,0.00,WUHU21623XXSP,2014-07-22 15:00:00,
2014-07-23 01:05:00,38.5,36.1,30.27,North,0,0.0,0.0,91,0.00,,,0.00,WUHU21623XXSP,2014-07-22 15:05:00,
2014-07-23 01:10:00,38.6,36.2,30.27,North,0,0.0,0.0,91,0.00,,,0.00,WUHU21623XXSP,2014-07-22 15:10:00,
2014-07-23 01:15:00,38.6,36.2,30.27,North,0,0.0,0.0,91,0.00,,,0.00,WUHU21623XXSP,2014-07-22 15:15:00,
2014-07-23 01:20:00,38.6,36.4,30.27,North,0,0.0,0.0,92,0.00,,,0.00,WUHU21623XXSP,2014-07-22 15:20:00,
2014-07-23 01:25:00,38.8,36.6,30.27,North,0,0.0,0.0,92,0.00,,,0.00,WUHU21623XXSP,2014-07-22 15:25:00,
2014-07-23 01:30:00,39.0,36.8,30.27,North,0,0.0,0.0,92,0.00,,,0.00,WUHU21623XXSP,2014-07-22 15:30:00,
2014-07-23 01:35:00,39.2,37.0,30.27,North,0,0.0,0.0,92,0.00,,,0.00,WUHU21623XXSP,2014-07-22 15:35:00,
2014-07-23 01:40:00,39.3,37.2,30.27,North,0,0.0,0.0,92,0.00,,,0.00,WUHU21623XXSP,2014-07-22 15:40:00,
2014-07-23 01:45:00,39.4,37.3,30.28,North,0,0.0,0.0,92,0.00,,,0.00,WUHU21623XXSP,2014-07-22 15:45:00,
2014-07-23 01:50:00,39.6,37.4,30.27,North,0,0.0,0.0,92,0.00,,,0.00,WUHU21623XXSP,2014-07-22 15:50:00,
2014-07-23 01:55:00,39.8,37.6,30.27,North,0,0.0,0.0,92,0.00,,,0.00,WUHU21623XXSP,2014-07-22 15:55:00,
2014-07-23 02:00:00,40.0,37.8,30.27,North,0,0.0,0.0,92,0.00,,,0.00,WUHU21623XXSP,2014-07-22 16:00:00,
2014-07-23 02:05:00,40.3,38.1,30.27,North,0,0.0,0.0,92,0.00,,,0.00,WUHU21623XXSP,2014-07-22 16:05:00,
2014-07-23 02:10:00,40.5,38.3,30.27,North,0,0.0,0.0,92,0.00,,,0.00,WUHU21623XXSP,2014-07-22 16:10:00,
2014-07-23 02:15:00,40.5,38.3,30.28,North,0,0.0,0.0,92,0.00,,,0.00,WUHU21623XXSP,2014-07-22 16:15:00,
2014-07-23 02:20:00,40.9,38.7,30.28,North,0,0.0,0.0,92,0.00,,,0.00,WUHU21623XXSP,2014-07-22 16:20:00,
2014-07-23 02:25:00,41.1,38.9,30.27,North,0,0.0,0.0,92,0.00,,,0.00,WUHU21623XXSP,2014-07-22 16:25:00,
2014-07-23 02:30:00,41.2,39.0,30.28,North,0,0.0,0.0,92,0.00,,,0.00,WUHU21623XXSP,2014-07-22 16:30:00,
2014-07-23 02:35:00,41.2,39.0,30.27,North,0,0.0,0.0,92,0.00,,,0.00,WUHU21623XXSP,2014-07-22 16:35:00,
2014-07-23 02:40:00,41.3,39.2,30.27,North,0,0.0,0.0,92,0.00,,,0.00,WUHU21623XXSP,2014-07-22 16:40:00,
2014-07-23 02:45:00,41.5,39.3,30.27,North,0,0.0,0.0,92,0.00,,,0.00,WUHU21623XXSP,2014-07-22 16:45:00,
2014-07-23 02:50:00,41.7,39.5,30.28,North,0,0.0,0.0,92,0.00,,,0.00,WUHU21623XXSP,2014-07-22 16:50:00,
2014-07-23 02:55:00,41.7,39.5,30.27,North,0,0.0,0.0,92,0.00,,,0.00,WUHU21623XXSP,2014-07-22 16:55:00,
2014-07-23 03:00:00,42.0,39.8,30.28,North,0,0.0,0.0,92,0.00,,,0.00,WUHU21623XXSP,2014-07-22 17:00:00,
2014-07-23 03:05:00,42.0,39.8,30.28,North,0,0.0,0.0,92,0.00,,,0.00,WUHU21623XXSP,2014-07-22 17:05:00,
2014-07-23 03:10:00,42.2,40.0,30.27,North,0,0.0,0.0,92,0.00,,,0.00,WUHU21623XXSP,2014-07-22 17:10:00,
2014-07-23 03:15:00,42.2,40.0,30.28,North,0,0.0,0.0,92,0.00,,,0.00,WUHU21623XXSP,2014-07-22 17:15:00,
2014-07-23 03:20:00,42.4,40.2,30.27,North,0,0.0,0.0,92,0.00,,,0.00,WUHU21623XXSP,2014-07-22 17:20:00,
2014-07-23 03:25:00,42.6,40.4,30.26,North,0,0.0,0.0,92,0.00,,,0.00,WUHU21623XXSP,2014-07-22 17:25:00,
2014-07-23 03:30:00,42.6,40.1,30.27,North,0,0.0,0.0,91,0.00,,,0.00,WUHU21623XXSP,2014-07-22 17:30:00,
2014-07-23 03:35:00,42.8,40.3,30.27,North,0,0.0,0.0,91,0.00,,,0.00,WUHU21623XXSP,2014-07-22 17:35:00,
2014-07-23 03:40:00,42.9,40.4,30.27,North,0,0.0,0.0,91,0.00,,,0.00,WUHU21623XXSP,2014-07-22 17:40:00,
2014-07-23 03:45:00,42.9,40.4,30.27,North,0,0.0,0.0,91,0.00,,,0.00,WUHU21623XXSP,2014-07-22 17:45:00,
2014-07-23 03:50:00,43.1,40.9,30.27,North,0,0.0,0.0,92,0.00,,,0.00,WUHU21623XXSP,2014-07-22 17:50:00,
2014-07-23 03:55:00,43.1,40.9,30.27,North,0,0.0,0.0,92,0.00,,,0.00,WUHU21623XXSP,2014-07-22 17:55:00,
2014-07-23 04:00:00,43.1,40.9,30.27,North,0,0.0,0.0,92,0.00,,,0.00,WUHU21623XXSP,2014-07-22 18:00:00,
2014-07-23 04:05:00,43.3,41.1,30.27,North,0,0.0,0.0,92,0.00,,,0.00,WUHU21623XXSP,2014-07-22 18:05:00,
2014-07-23 04:10:00,43.3,41.1,30.27,North,0,0.0,0.0,92,0.00,,,0.00,WUHU21623XXSP,2014-07-22 18:10:00,
2014-07-23 04:15:00,43.3,41.1,30.27,North,0,0.0,0.0,92,0.00,,,0.00,WUHU21623XXSP,2014-07-22 18:15:00,
2014-07-23 04:20:00,43.5,41.3,30.26,North,0,0.0,0.0,92,0.00,,,0.00,WUHU21623XXSP,2014-07-22 18:20:00,
2014-07-23 04:25:00,43.5,41.3,30.27,North,0,0.0,0.0,92,0.00,,,0.00,WUHU21623XXSP,2014-07-22 18:25:00,
2014-07-23 04:30:00,43.5,41.3,30.27,North,0,0.0,0.0,92,0.00,,,0.00,WUHU21623XXSP,2014-07-22 18:30:00,
2014-07-23 04:35:00,43.7,41.5,30.26,North,0,0.0,0.0,92,0.00,,,0.00,WUHU21623XXSP,2014-07-22 18:35:00,
2014-07-23 04:40:00,43.8,41.6,30.26,North,0,0.0,0.0,92,0.00,,,0.00,WUHU21623XXSP,2014-07-22 18:40:00,
2014-07-23 04:45:00,43.8,41.6,30.26,North,0,0.0,0.0,92,0.00,,,0.00,WUHU21623XXSP,2014-07-22 18:45:00,
2014-07-23 04:50:00,43.9,41.6,30.26,North,0,0.0,0.0,92,0.00,,,0.00,WUHU21623XXSP,2014-07-22 18:50:00,
2014-07-23 04:55:00,43.9,41.6,30.26,North,0,0.0,0.0,92,0.00,,,0.00,WUHU21623XXSP,2014-07-22 18:55:00,
2014-07-23 05:00:00,43.9,41.6,30.26,North,0,0.0,0.0,92,0.00,,,0.00,WUHU21623XXSP,2014-07-22 19:00:00,
2014-07-23 05:05:00,43.9,41.7,30.26,North,0,0.0,0.0,92,0.00,,,0.00,WUHU21623XXSP,2014-07-22 19:05:00,
2014-07-23 05:11:00,43.9,41.7,30.26,North,0,0.0,0.0,92,0.00,,,0.00,WUHU21623XXSP,2014-07-22 19:11:00,
2014-07-23 05:16:00,43.8,41.6,30.26,North,0,0.0,0.0,92,0.00,,,0.00,WUHU21623XXSP,2014-07-22 19:16:00,
2014-07-23 05:21:00,43.6,41.4,30.26,North,0,0.0,0.0,92,0.00,,,0.00,WUHU21623XXSP,2014-07-22 19:21:00,
2014-07-23 05:26:00,43.4,41.2,30.26,North,0,0.0,0.0,92,0.00,,,0.00,WUHU21623XXSP,2014-07-22 19:26:00,
2014-07-23 05:31:00,43.4,41.2,30.26,North,0,0.0,0.0,92,0.00,,,0.00,WUHU21623XXSP,2014-07-22 19:31:00,
2014-07-23 05:36:00,43.4,41.2,30.27,North,0,0.0,0.0,92,0.00,,,0.00,WUHU21623XXSP,2014-07-22 19:36:00,
2014-07-23 05:41:00,43.2,41.0,30.27,North,0,0.0,0.0,92,0.00,,,0.00,WUHU21623XXSP,2014-07-22 19:41:00,
2014-07-23 05:46:00,43.2,41.0,30.27,North,0,0.0,0.0,92,0.00,,,0.00,WUHU21623XXSP,2014-07-22 19:46:00,